This demonstration page uses our WeatherBlox Daily Observations layout. Learn more.

Left ArrowRight Arrow

44.31136, -96.79839

Hourly Observations for June 14, 2019

Temp ( °F °C ) Dew Point ( °F °C ) Humidity (%) Winds ( mph kmh ) Pressure ( in mb ) Visibility ( mi km ) Precip ( " mm )
12:56 am 00:56 Mostly Cloudy 64 17.8 50 10 60 60 S 12 19 29.82 1010 10 16 0.00 0.00
1:56 am 01:56 Partly Cloudy 63 17.2 51 10.6 65 65 S 10 17 29.81 1010 10 16 0.00 0.00
2:56 am 02:56 Mostly Clear 63 17.2 52 11.1 68 68 SSW 12 19 29.79 1009 10 16 0.00 0.00
3:56 am 03:56 Clear 63 17.2 52 11.1 68 68 S 10 17 29.77 1008 10 16 0.00 0.00
4:56 am 04:56 Clear 62 16.7 51 10.6 67 67 S 12 19 29.74 1007 10 16 0.00 0.00
5:56 am 05:56 Sunny 60 15.6 51 10.6 72 72 S 8 13 29.74 1007 10 16 0.00 0.00
6:56 am 06:56 Sunny 61 16.1 52 11.1 72 72 SSE 7 11 29.74 1007 10 16 0.00 0.00
7:56 am 07:56 Sunny 64 17.8 54 12.2 70 70 S 8 13 29.73 1007 10 16 0.00 0.00
8:56 am 08:56 Mostly Sunny 68 20 55 12.8 63 63 SSW 18 30 29.73 1007 10 16 0.00 0.00
9:56 am 09:56 Sunny 70 21.1 56 13.3 61 61 SSW 16 26 29.72 1007 10 16 0.00 0.00
10:56 am 10:56 Sunny 73 22.8 59 15 62 62 SSW 16 26 29.71 1006 10 16 0.00 0.00
11:56 am 11:56 Sunny 75 23.9 60 15.6 60 60 SSW 14 22 29.69 1005 10 16 0.00 0.00
12:56 pm 12:56 Sunny 77 25 60 15.6 56 56 SSW 8 13 29.68 1005 10 16 0.00 0.00
1:56 pm 13:56 Sunny 77 25 61 16.1 58 58 S 9 15 29.67 1005 10 16 0.00 0.00
2:56 pm 14:56 Sunny 79 26.1 62 16.7 56 56 S 9 15 29.66 1004 8 13 0.00 0.00
3:56 pm 15:56 Sunny 81 27.2 61 16.1 51 51 SSW 7 11 29.65 1004 10 16 0.00 0.00
4:56 pm 16:56 Sunny 82 27.8 60 15.6 47 47 SW 5 7 29.65 1004 10 16 0.00 0.00
5:56 pm 17:56 Sunny 82 27.8 60 15.6 47 47 W 6 9 29.64 1004 10 16 0.00 0.00
6:56 pm 18:56 Sunny 82 27.8 60 15.6 47 47 Calm 29.62 1003 10 16 0.00 0.00
7:56 pm 19:56 Sunny 81 27.2 58 14.4 45 45 Calm 29.63 1003 10 16 0.00 0.00
8:56 pm 20:56 Sunny 76 24.4 60 15.6 58 58 SSE 3 6 29.64 1004 10 16 0.00 0.00
9:56 pm 21:56 Clear 72 22.2 60 15.6 66 66 Calm 29.66 1004 10 16 0.00 0.00
10:56 pm 22:56 Clear 70 21.1 60 15.6 71 71 SSE 3 6 29.65 1004 10 16 0.00 0.00
11:56 pm 23:56 Clear 67 19.4 60 15.6 79 79 Calm 29.66 1004 10 16 0.00 0.00

Powered by AerisWeather